Weather History for KHTS - October, 2011

Change the Weather History Date:

Saturday, October 22, 2011

  Actual Average Record
Temperature  
Mean Temperature 48 °F 55 °F  
Max Temperature 62 °F 66 °F 85 °F (1979)
Min Temperature 33 °F 43 °F 20 °F (1952)
Degree Days  
Heating Degree Days 17 11  
Month to date heating degree days 171 173  
Since 1 July heating degree days 226 231  
Cooling Degree Days 0 0  
Month to date cooling degree days 2 16  
Year to date cooling degree days 1239 1127  
Moisture  
Dew Point 37 °F    
Average Humidity 70    
Maximum Humidity 100    
Minimum Humidity 40    
Precipitation  
Precipitation 0.00 in 0.10 in 1.39 in (1983)
Month to date precipitation 3.37 1.94  
Year to date precipitation 51.59 34.97  
Snow  
Snow 0.00 in - - ()
Month to date snowfall 0.0  
Since 1 September snowfall 0.0  
Snow Depth 0.00 in    
Sea Level Pressure  
Sea Level Pressure 30.14 in    
Wind  
Wind Speed 2 mph (SW)    
Max Wind Speed 9 mph    
Max Gust Speed 14 mph    
Visibility 8 miles    
Events      
T = Trace of Precipitation, MM = Missing Value Source: NWS Daily Summary

Daily Weather History Graph

Daily Weather History Graph

Search for Another Location

Airport or City:

Trip Planner

Search our weather history database for the weather conditions in past years. The results will help you decide how hot, cold, wet, or windy it might be!

Date:

Astronomy

Oct. 22, 2011 Rise Set
Actual Time 7:45 AM EDT 6:43 PM EDT
Civil Twilight 7:18 AM EDT 7:09 PM EDT
Nautical Twilight 6:48 AM EDT 7:40 PM EDT
Astronomical Twilight 6:17 AM EDT 8:11 PM EDT
Moon 2:45 AM EDT (10/22) 3:56 PM EDT (10/22)
Length of Visible Light 11h 51m
Length of Day
10h 57m
Waning Crescent, 24% of the Moon is Illuminated
Oct 22
Waning Crescent
Oct 26
New
Nov 2
First Quarter
Nov 10
Full
Nov 18
Last Quarter

Hourly Weather History & Observations

Time (EDT) Temp. Windchill Dew Point Humidity Pressure Visibility Wind Dir Wind Speed Gust Speed Precip Events Conditions
12:51 AM 42.1 °F - 37.9 °F 85% 30.13 in 10.0 mi Calm Calm - N/A   Clear
1:51 AM 41.0 °F - 37.9 °F 89% 30.13 in 10.0 mi Calm Calm - N/A   Partly Cloudy
2:51 AM 41.0 °F - 37.9 °F 89% 30.13 in 10.0 mi Calm Calm - N/A   Clear
3:51 AM 39.0 °F 36.8 °F 37.0 °F 93% 30.13 in 9.0 mi SW 3.5 mph - N/A   Clear
4:51 AM 37.0 °F - 36.0 °F 96% 30.13 in 5.0 mi Calm Calm - N/A   Clear
5:51 AM 35.1 °F - 34.0 °F 96% 30.15 in 7.0 mi Calm Calm - N/A   Partly Cloudy
6:51 AM 34.0 °F - 33.1 °F 96% 30.17 in 2.0 mi Calm Calm - N/A   Clear
6:58 AM 33.8 °F - 33.8 °F 100% 30.15 in 4.0 mi Calm Calm - N/A   Clear
7:13 AM 33.8 °F - 33.8 °F 100% 30.15 in 4.0 mi Calm Calm - N/A   Partly Cloudy
7:51 AM 34.0 °F - 33.1 °F 96% 30.17 in 4.0 mi Calm Calm - N/A   Clear
8:51 AM 37.0 °F - 37.0 °F 100% 30.18 in 4.0 mi Calm Calm - N/A   Clear
9:51 AM 43.0 °F 41.3 °F 39.9 °F 89% 30.19 in 10.0 mi SW 3.5 mph - N/A   Clear
10:51 AM 48.0 °F - 41.0 °F 77% 30.18 in 10.0 mi SSW 4.6 mph - N/A   Clear
11:51 AM 53.1 °F - 42.1 °F 66% 30.18 in 10.0 mi Calm Calm - N/A   Clear
12:51 PM 57.0 °F - 39.0 °F 51% 30.16 in 10.0 mi SW 8.1 mph - N/A   Clear
1:51 PM 59.0 °F - 39.0 °F 48% 30.12 in 10.0 mi SW 5.8 mph - N/A   Clear
2:51 PM 59.0 °F - 36.0 °F 42% 30.11 in 10.0 mi Variable 6.9 mph - N/A   Clear
3:51 PM 61.0 °F - 37.9 °F 42% 30.10 in 10.0 mi Variable 6.9 mph - N/A   Clear
4:51 PM 61.0 °F - 37.0 °F 41% 30.10 in 9.0 mi Calm Calm - N/A   Clear
5:51 PM 59.0 °F - 36.0 °F 42% 30.10 in 10.0 mi Variable 4.6 mph - N/A   Clear
6:51 PM 57.0 °F - 36.0 °F 45% 30.11 in 10.0 mi Calm Calm - N/A   Clear
7:51 PM 54.0 °F - 36.0 °F 51% 30.12 in 10.0 mi Calm Calm - N/A   Clear
8:51 PM 50.0 °F - 37.9 °F 63% 30.12 in 10.0 mi Calm Calm - N/A   Clear
9:51 PM 48.9 °F - 37.9 °F 66% 30.12 in 5.0 mi Calm Calm - N/A   Haze
10:51 PM 45.0 °F - 39.0 °F 80% 30.12 in 10.0 mi Calm Calm - N/A   Clear
11:51 PM 43.0 °F - 39.0 °F 86% 30.12 in 10.0 mi Calm Calm - N/A   Clear